Weather History for KSAW - January, 2013

Change the Weather History Date:

Wednesday, January 16, 2013

  Actual Average (KMQT) Record (KMQT)
Temperature  
Mean Temperature 20 °F 13 °F  
Max Temperature 28 °F 22 °F 46 °F (1973)
Min Temperature 13 °F 5 °F -25 °F (1979)
Degree Days  
Heating Degree Days 44 52  
Month to date heating degree days 815  
Since 1 July heating degree days 4457  
Cooling Degree Days 0 0  
Month to date cooling degree days 0  
Year to date cooling degree days 0  
Moisture  
Dew Point 13 °F    
Average Humidity 76    
Maximum Humidity 86    
Minimum Humidity 63    
Precipitation  
Precipitation 0.00 in 0.08 in 0.56 in (1980)
Month to date precipitation 1.26  
Year to date precipitation 1.26  
Snow  
Snow 0.00 in 1.40 in 9.00 in (1978)
Month to date snowfall 22.4  
Since 1 July snowfall 95.7  
Snow Depth -    
Sea Level Pressure  
Sea Level Pressure 29.72 in    
Wind  
Wind Speed 15 mph (SW)    
Max Wind Speed 22 mph    
Max Gust Speed 32 mph    
Visibility 9 miles    
Events Snow    
T = Trace of Precipitation, MM = Missing Value Source: NWS Daily Summary

Daily Weather History Graph

Daily Weather History Graph

Search for Another Location

Airport or City:

Trip Planner

Search our weather history database for the weather conditions in past years. The results will help you decide how hot, cold, wet, or windy it might be!

Date:

Astronomy

Jan. 16, 2013 Rise Set
Actual Time 8:27 AM EST 5:31 PM EST
Civil Twilight 7:54 AM EST 6:05 PM EST
Nautical Twilight 7:17 AM EST 6:42 PM EST
Astronomical Twilight 6:41 AM EST 7:18 PM EST
Moon 10:42 AM EST (1/16) 11:46 PM EST (1/16)
Length of Visible Light 10h 10m
Length of Day
9h 03m
Waxing Crescent, 28% of the Moon is Illuminated
Jan 16
Waxing Crescent
Jan 18
First Quarter
Jan 26
Full
Feb 3
Last Quarter
Feb 10
New

Hourly Weather History & Observations

Time (EST) Temp. Windchill Dew Point Humidity Pressure Visibility Wind Dir Wind Speed Gust Speed Precip Events Conditions
12:17 AM 16.9 °F 3.4 °F 11.7 °F 80% 29.85 in 10.0 mi South 12.7 mph - N/A   Clear
12:37 AM 16.7 °F 3.8 °F 11.7 °F 81% 29.84 in 10.0 mi South 11.5 mph - N/A   Clear
12:57 AM 16.7 °F 2.6 °F 11.7 °F 81% 29.82 in 10.0 mi South 13.8 mph - N/A   Clear
1:17 AM 17.2 °F 4.5 °F 11.8 °F 79% 29.81 in 10.0 mi SSW 11.5 mph - N/A   Clear
1:37 AM 17.6 °F 3.2 °F 12.2 °F 79% 29.79 in 10.0 mi SSW 15.0 mph - N/A   Clear
1:57 AM 18.1 °F 3.9 °F 12.2 °F 78% 29.78 in 10.0 mi South 15.0 mph - N/A   Clear
2:17 AM 18.5 °F 5.5 °F 12.2 °F 76% 29.77 in 10.0 mi South 12.7 mph - N/A   Clear
2:36 AM 18.5 °F 4.3 °F 12.2 °F 76% 29.75 in 10.0 mi SSW 15.0 mph - N/A   Clear
2:57 AM 18.7 °F 3.1 °F 12.4 °F 76% 29.74 in 10.0 mi SSW 18.4 mph - N/A   Clear
3:17 AM 19.0 °F 4.0 °F 12.6 °F 76% 29.73 in 10.0 mi SSW 17.3 mph 21.9 mph N/A   Clear
3:36 AM 19.4 °F 4.1 °F 12.7 °F 75% 29.72 in 10.0 mi SSW 18.4 mph 24.2 mph N/A   Clear
3:57 AM 19.4 °F 3.2 °F 12.2 °F 74% 29.70 in 10.0 mi SSW 20.7 mph - N/A   Clear
4:17 AM 19.8 °F 3.7 °F 12.9 °F 75% 29.68 in 10.0 mi SSW 20.7 mph 24.2 mph N/A   Clear
4:37 AM 19.4 °F 3.6 °F 12.7 °F 75% 29.66 in 10.0 mi SSW 19.6 mph 24.2 mph N/A   Clear
4:57 AM 19.4 °F 3.6 °F 12.7 °F 75% 29.64 in 10.0 mi South 19.6 mph 25.3 mph N/A   Clear
5:17 AM 18.5 °F 2.9 °F 12.4 °F 77% 29.62 in 10.0 mi SSW 18.4 mph 24.2 mph N/A   Scattered Clouds
5:37 AM 18.5 °F 2.4 °F 12.6 °F 78% 29.60 in 10.0 mi SSW 19.6 mph 24.2 mph N/A   Scattered Clouds
5:56 AM 18.9 °F 3.8 °F 12.6 °F 76% 29.58 in 10.0 mi SSW 17.3 mph - N/A   Mostly Cloudy
6:55 AM 21.2 °F 5.6 °F 12.2 °F 68% 29.53 in 10.0 mi SSW 20.7 mph 29.9 mph N/A   Overcast
7:15 AM 21.2 °F 5.2 °F 14.0 °F 74% 29.53 in 4.0 mi SSW 21.9 mph 32.2 mph N/A Snow Light Snow
7:50 AM 19.4 °F 2.8 °F 15.8 °F 86% 29.50 in 2.0 mi SSW 21.9 mph 32.2 mph N/A Snow Light Snow
8:50 AM 19.4 °F 4.1 °F 15.8 °F 86% 29.51 in 3.0 mi SSW 18.4 mph 23.0 mph N/A Snow Light Snow
9:05 AM 19.4 °F 4.1 °F 15.8 °F 86% 29.51 in 5.0 mi SSW 18.4 mph 23.0 mph N/A Snow Light Snow
9:50 AM 21.2 °F 7.3 °F 15.8 °F 80% 29.51 in 7.0 mi SSW 16.1 mph 23.0 mph N/A   Overcast
10:50 AM 21.2 °F 9.5 °F 17.6 °F 86% 29.52 in 10.0 mi SSW 11.5 mph - N/A   Overcast
11:50 AM 23.0 °F 11.7 °F 17.6 °F 80% 29.52 in 10.0 mi SSW 11.5 mph - N/A   Overcast
1:50 PM 26.6 °F 13.8 °F 23.0 °F 86% 29.53 in 4.0 mi WNW 17.3 mph - N/A   Overcast
2:50 PM 28.4 °F 20.4 °F 23.0 °F 80% 29.55 in 10.0 mi NW 8.1 mph - N/A   Overcast
3:50 PM 28.4 °F 18.5 °F 19.4 °F 69% 29.59 in 10.0 mi WNW 11.5 mph - N/A   Overcast
4:50 PM 26.6 °F 14.7 °F 17.6 °F 69% 29.67 in 10.0 mi NW 15.0 mph 23.0 mph N/A Snow Light Snow
5:50 PM 23.0 °F 8.3 °F 12.2 °F 63% 29.72 in 10.0 mi NW 19.6 mph 26.5 mph N/A   Scattered Clouds
6:50 PM 21.2 °F 10.1 °F 12.2 °F 68% 29.79 in 10.0 mi NNW 10.4 mph 17.3 mph N/A Snow Light Snow
7:50 PM 19.4 °F 6.0 °F 8.6 °F 63% 29.83 in 10.0 mi NNW 13.8 mph 23.0 mph N/A   Scattered Clouds
8:50 PM 19.4 °F 7.2 °F 8.6 °F 63% 29.87 in 10.0 mi NNW 11.5 mph 16.1 mph N/A   Overcast
9:46 PM 17.6 °F 5.0 °F 8.6 °F 68% 29.90 in 10.0 mi North 11.5 mph 19.6 mph N/A Snow Light Snow
10:16 PM 16.5 °F 1.3 °F 7.7 °F 68% 29.92 in 10.0 mi North 16.1 mph 23.0 mph N/A   Overcast
10:37 PM 15.8 °F 2.1 °F 6.6 °F 67% 29.94 in 10.0 mi NNW 12.7 mph 20.7 mph N/A   Overcast
10:57 PM 14.9 °F 2.3 °F 7.5 °F 73% 29.96 in 10.0 mi North 10.4 mph - N/A   Overcast
11:17 PM 14.4 °F 0.9 °F 7.7 °F 75% 29.96 in 10.0 mi North 11.5 mph 18.4 mph N/A   Overcast
11:37 PM 13.8 °F 1.0 °F 7.3 °F 75% 29.97 in 10.0 mi North 10.4 mph - N/A   Overcast
11:57 PM 13.5 °F -0.9 °F 7.9 °F 78% 29.99 in 4.0 mi NNW 12.7 mph - N/A Snow Light Snow